Feng Yun 1C

operational
NORAD ID: 25730 Int'l Des: 1999-025 Owner: NSMC Country: CN
LEOCIRCULARRETROGRADESSO

About Feng Yun 1C

Description loading...

Live Position

Loading 3D Globe...

Upcoming Passes

Altitude History

Altitude vs Time

uPlot chart will show altitude changes over time

Two-Line Element Set

1 25730U 99025A 26062.13454046 .00002623 00000-0 11042-2 0 9998
2 25730 98.8710 134.2636 0011765 186.6958 173.4066 14.26614971382832
Epoch: Mar 3, 2026 • Age: 22 hours

Current Status

Altitude 810.8 km
Velocity 7.46 km/s
Sub-Earth Point 63.16°N, 163.04°W
Launch Date May 10, 1999
Age 26.8 years
Type other

Technical Details

Classification Payload
Mass 958.00 kg
Dry Mass 958.00 kg
Total Mass 958.00 kg
Length 1.40 m
Diameter 1.40 m
Span 8.60 m
Shape Box + 2 Pan
Manufacturer SISE
Bus Type FY-1
Phase Status Collided
Owner/State NSMC/CN

Large Constellations

Loading constellations...